Погода в Исити

Погода в Исити : погода сейчас, прогноз погоды и архив. Всё, что Вы хотите узнать о погоде в Исити!

Хотите узнать прогноз погоды в Исити? Тогда Вам сюда: Погода в Исити

Поиск расширенной информации на нашем сайте:

Другие новости

Новости СМИ2

Главная страница сайта

Новости сайта

03.07.2017

Напоминаем, что на нашем специализированном сайте Метеоцентр.Азия вы можете получить высокодетализированные автоматические прогнозы погоды по пунктам России, СНГ и мира в авиационном формате (включающие направление и скорость ветра, видимость, явления погоды, количество и форму облачности, нижнюю и верхнюю границу облачности).


Погода в Исити - сегодня

Время (UTC), дата Ветер
(°,м/с) 
Видим.   Явления Облачность Т
(°С)
Тd
(°С)
f(%) Тe
(°С)
Pmin
(гПа)
dP
(гПа)
Po
(мм)
O2
(г/м3)
Тmin Tmax R s Состояние
почвы
15 21.02.18 300 (СЗ) 20000 м    ясно 
-33.7 -36.6 75 -35  1020.8  0.4  752  347           
18 21.02.18 тихо ()   20000 м    ясно 
-35.7 -38.7 74 -36  1021.2  0.2  752  350           
21 21.02.18 тихо ()   20000 м    ясно 
-39.1 -41.8 75 -39  1022.3  0.8  752  356           
00 22.02.18 тихо ()   20000 м    ясно 
-40.7 -43.3 76 -41  1023.6  1.1  753  359  -41      36  равномерный
сухой снег
100% 
03 22.02.18 130 (ЮВ) 20000 м    ясно 
-37.2 -40.8 69 -38  1024.4  1.1  754  354           
06 22.02.18 120 (ЮВ) 20000 м    ясно 
-34.5 -38.1 70 -35  1023  -1.2  753  349           
09 22.02.18 тихо ()   20000 м    ясно 
-35.1 -38.7 69 -35  1023  753  350           
12 22.02.18 100 (В) 20000 м    ясно 
-35.6 -38.4 75 -37  1025  1.9  754  352    -32.7       
15 22.02.18 тихо ()   20000 м    ясно 
-36.6 -39.4 75 -37  1027  1.9  756  354           
18 22.02.18 тихо ()   20000 м    ясно 
-37.4 -40.1 76 -37  1027.1  756  355           
21 22.02.18 тихо ()   20000 м    ясно 
-38.3 -40.9 76 -38  1028.6  1.5  757  357           
00 23.02.18 тихо ()   20000 м    ясно 
-39.5 -42.3 75 -40  1030.2  1.4  758  359  -39.9      36  равномерный
сухой снег
100% 
03 23.02.18 тихо ()   20000 м    1/0 верхняя 
[Ci fib]
-36.2 -40.4 65 -36  1030.7  0.8  759  354  -40         
06 23.02.18 120 (ЮВ) 20000 м    1/0 средняя 
[Ac lent]
-33.2 -37.7 64 -34  1030.5  0.1  759  350           
09 23.02.18 тихо ()   20000 м    3/0 средняя, верхняя 
[Ac lent|Ci sp]
-32.6 -36.2 70 -33  1031.2  0.7  759  349           
12 23.02.18 тихо ()   20000 м    1/0 верхняя 
[Ci fib]
-31.9 -35 74 -32  1032.7  1.5  760  349    -31.7       
15 23.02.18 тихо ()   20000 м    6/0 верхняя 
[Ci fib]
-33.7 -36.6 75 -34  1033.2  0.3  761  352           
18 23.02.18 тихо ()   20000 м    ясно 
-35.4 -38.4 74 -35  1033.6  0.3  761  354           
21 23.02.18 тихо ()   20000 м  слаб. снег  10/0 верхняя 
[Cs]
-36 -39 74 -36  1034.3  0.7  761  355           
03 24.02.18 тихо ()   20000 м    9/0 верхняя 
[Cs]
-32.1 -36.5 65 -32  1033.6  -0.1  761  350           
06 24.02.18 тихо ()   20000 м    10/0 верхняя 
[Cs]
-28.9 -33.5 65 -29  1032.9  -0.5  761  345           
09 24.02.18 090 (В) 20000 м    6/0 средняя, верхняя 
[Ac lent|Ci fib]
-28.2 -31.3 75 -29  1032.7  761  344           
12 24.02.18 тихо ()   20000 м    10/0 верхняя 
[Cs]
-31.2 -34.3 74 -31  1033.3  0.2  761  348    -28.2       
15 24.02.18 тихо ()   20000 м    10/0 верхняя 
[Cs]
-31.3 -34.3 75 -31  1033.2  -0.1  761  348           
18 24.02.18 080 (В) 20000 м    10/0 верхняя 
[Cs]
-33.6 -36.6 74 -35  1033.7  0.3  761  352           
Время (UTC), дата Ветер
(°,м/с) 
Видим.   Явления Облачность Т
(°С)
Тd
(°С)
f(%) Тe
(°С)
Pmin
(гПа)
dP
(гПа)
Po
(мм)
O2
(г/м3)
Тmin Tmax R s Состояние
почвы

Для получения пояснительной информации подведите курсор к названию столбца.

ПОГОДА в Исити - архив

Всё, что Вы хотите узнать о погоде в Исити - удобно и подробно!

Выберите нужную дату (начиная с 1 января 2015* года) и нажмите кнопку "Найти".
Будут отображены архивные сводки погоды по пункту Исить, начиная с указанной даты.


Отображать данные в формате CSV (для использования в таблицах Excel)


Внимание! Наш архив погоды предназначен исключительно для личного некоммерческого использования в познавательных целях. Если Вам необходимы официальные справки о состоянии погоды (для производственных, юридических, коммерческих и т.п. целей), обращайтесь в органы Росгидромета.

*Примечание: данная дата относится к архиву по метеостанциям СССР (Россия, СНГ, Балтия).
Архив по метеостанциям Зарубежной Европы и Азии (кроме Китая) хранится 10 дней, по другим регионам земного шара (Китай, Африка, Америка, Австралия, Океания) - 1 день.

Исить - район местоположения метеостанции


Название, широта, долгота, высота метеостанции:
Исить 60.8°ш. 125.3°д. 118 м над ур. моря [Российская Федерация]

Дополнительная информация

В oтличие oт бoльшинства пoгoдных сайтoв мы публикуем пoдрoбную метеoинфoрмацию в детальнoм прoфессиoнальнoм фoрмате.

Характеристики температуры и влажнoсти вoздуха измеряются на высoте 2 м в тени вдали oт зданий и деревьев.
Скoрoсть ветра измеряется на высoте 10 м (на урoвне рoста челoвека скoрoсть ветра ниже в 1.5-2 раза). Если метеoстанция нахoдится в гoрoде или в лесу, тo скoрoсть ветра занижена на 2-4 м/с пo сравнению с oткрытым местoм. Скoрoсть ветра над акватoриями крупных рек и oзёр, а также на вершинах хoлмoв на 2-5 м/с выше, чем в oбычных услoвиях.
Атмoсфернoе давление в разных тoчках местнoсти мoжет значительнo oтличаться oт давления на метеoстанции, в зависимoсти oт услoвий рельефа (при пoдъёме на 10 м давление пoнижается примернo на 1 мм рт.ст.).